SCP
0 0 0 0 0 0 0 0 0 0 0 0 0 0 0 0 0 0 0 0 0 0 0 -0 -0 0 0 0 0 0 0 0 0 0 0 0 0 0 0 0 0 0 0 0 0 0 0 0 0 0 0 0 0 0
0 0 0 0 0 0 0 0 0 0 0 0 0 0 0 0 0 0 0 0 0 0 -0 -0 -0 -0 -0 0 0 0 0 0 0 0 0 0 0 0 0 0 0 0 0 0 0 0 0 0 0 0 0 0 0 0
0 0 0 0 0 0 0 0 0 0 0 0 0 0 0 0 0 0 0 0 0 0 0 0 0 -0 0 -0 0 0 0 0 0 0 0 0 0 0 0 -0 0 0 0 0 0 0 0 0 0 0 0 0 0 0
0 0 0 0 0 0 0 0 0 0 0 0 0 0 0 0 0 0 0 0 0 0 0 0 -0 -0 0 -0 -0 -0 0 0 0 0 0 -0 -0 -0 -0 0 0 0 0 0 0 0 0 0 0 0 0 0 0 0
0 0 0 0 0 0 0 0 0 0 0 0 0 0 0 0 0 0 0 0 0 0 0 0 -0 0 -0 -0 -0 0 0 0 0 0 0 0 -0 -0 -0 0 0 0 0 0 0 0 0 0 0 0 0 0 0 0
0 0 0 0 0 0 0 0 0 0 0 0 0 0 0 0 0 0 0 0 0 0 0 0 -0 0 0 -0 0 0 0 0 0 0 -0 -0 0 0 0 0 0 0 0 0 0 0 0 0 0 0 0 0 0 0
0 0 0 0 0 0 0 0 0 0 0 0 0 0 0 0 0 0 0 0 0 0 0 0 0 0 -0 0 0 0 0 0 0 0 0 -0 -0 0 0 0 0 0 0 0 0 0 0 0 0 0 0 0 0 0
0 0 0 0 0 0 0 0 0 0 0 0 0 0 0 0 0 0 0 0 0 0 0 0 0 0 -0 -0 0 -0 0 0 0 0 0 0 -0 0 0 0 0 0 0 0 0 0 0 0 0 0 0 0 0 0
0 0 0 0 0 0 -0 0 0 0 0 0 0 0 0 0 0 0 0 -0 0 0 0 0 0 0 0 0 -0 0 0 0 0 0 -0 0 -0 0 0 0 0 0 0 0 0 0 0 0 0 0 0 0 0 0
0 0 0 0 0 -0 -0 -0 0 0 0 0 0 0 0 0 0 0 0 0 0 0 0 0 0 0 0 0 0 -0 -0 0 0 -0 0 -0 0 0 0 0 0 0 0 0 -0 0 0 0 0 0 0 0 0 0
0 0 0 0 -0 -0 -0 -0 -0 0 0 0 0 0 0 0 0 0 0 0 0 0 0 0 0 0 0 0 0 0 0 0 0 0 0 -0 -0 -0 -0 0 0 0 0 0 0 0 0 0 0 0 0 0 0 0
-0 -0 0 -0 -0 -0 -0 -0 -0 0 0 0 0 0 0 0 0 0 0 -0 0 0 0 0 0 0 0 0 0 0 0 0 0 0 0 0 -0 0 -0 0 0 0 0 0 0 0 0 0 0 0 0 0 0 0
-0 0 -0 -0 -0 -0 -0 -0 -0 0 0 0 0 0 0 0 0 0 0 0 0 0 0 0 0 0 0 0 0 0 0 0 0 0 0 0 -0 -0 -0 -0 0 -0 -0 0 0 0 0 0 0 0 0 0 0 0
-0 0 -0 -0 -0 -0 -0 -0 0 0 0 0 0 0 0 0 0 0 0 0 0 0 0 0 0 0 0 0 0 0 0 0 0 0 0 0 0 -0 0 -0 -0 0 -0 0 0 0 0 0 0 0 0 0 0 0
0 -0 -0 -0 -0 -0 -0 -0 0 0 0 0 0 0 0 0 0 0 0 0 0 0 0 0 -0 0 0 0 0 0 0 0 0 0 0 0 0 0 -0 -0 -0 -0 0 0 0 0 0 0 0 0 0 0 0 0
-0 -0 -0 -0 -0 -0 -0 0 0 0 0 0 0 0 0 0 0 0 0 0 0 0 0 0 0 0 0 0 0 0 0 0 0 0 0 -0 0 0 0 0 0 -0 -0 -0 0 0 -0 -0 -0 -0 0 0 0 0
-0 -0 -0 -0 -0 -0 -0 0 0 0 0 0 0 0 0 0 0 0 0 0 0 0 0 0 0 0 0 0 0 0 0 0 0 0 0 0 0 0 -0 -0 -0 0 0 -0 0 0 -0 -0 -0 -0 0 -0 -0 -0
-0 -0 -0 -0 -0 0 0 0 0 0 0 0 0 0 0 0 0 0 0 0 0 0 0 0 0 0 0 0 0 0 0 0 0 0 0 0 0 0 0 0 0 0 0 0 0 0 0 0 0 -0 -0 -0 -0 -0
0 -0 -0 -0 0 0 0 0 0 0 0 0 0 0 0 0 0 0 0 0 0 0 0 0 0 0 0 0 0 0 0 0 0 0 0 0 0 0 0 0 0 0 0 0 0 0 0 0 0 0 0 -0 -0 -0
0 0 -0 0 0 0 0 0 0 0 0 0 0 0 0 0 0 0 0 0 0 0 0 0 0 0 0 0 -0 -0 0 0 0 0 0 0 0 0 0 0 0 0 0 0 0 0 0 0 0 0 0 0 0 0
0 0 0 0 0 0 0 0 0 0 0 0 0 0 0 0 0 0 0 0 0 0 0 0 0 0 -0 0 -0 0 -0 -0 0 0 0 0 0 0 0 0 0 0 0 0 0 0 0 0 0 0 0 0 0 0
0 0 0 0 0 0 0 0 0 -0 -0 -0 -0 -0 -0 0 0 0 0 0 0 0 0 0 0 -0 0 -0 0 -0 -0 -0 0 0 0 0 0 0 0 0 0 0 0 0 0 0 0 0 0 0 0 0 0 0
0 0 0 0 0 0 -0 -0 -0 -0 -0 -0 -0 -0 -0 -0 -0 0 0 0 0 0 0 0 0 0 -0 0 0 0 0 0 0 0 0 0 0 0 0 0 -0 -0 0 0 0 0 0 0 0 0 0 0 0 0
0 0 0 0 0 -0 -0 -0 -0 -0 -0 0 0 0 0 0 0 0 0 0 0 0 0 -0 0 -0 0 0 0 0 0 0 0 0 0 0 0 0 0 0 -0 -0 -0 -0 -0 0 0 -0 -0 -0 0 0 0 0
0 0 0 0 0 0 0 0 0 0 0 0 0 0 0 0 0 0 0 0 0 -0 -0 -0 -0 0 0 0 0 0 0 0 0 0 0 0 0 0 0 0 0 0 0 0 0 0 0 0 0 0 0 0 0 0
0 0 0 0 0 0 0 0 0 0 0 0 0 0 0 0 0 0 0 -0 -0 -0 -0 -0 -0 -0 0 0 0 0 0 0 0 0 0 0 0 0 0 0 0 0 0 0 0 0 0 0 0 0 0 0 0 0
0 0 0 0 0 0 0 0 0 0 0 0 0 0 0 0 0 0 0 -0 -0 0 0 -0 0 0 0 0 0 0 0 0 0 0 0 0 0 0 0 0 0 0 0 0 0 0 0 0 0 0 0 0 0 0
0 0 0 0 0 0 0 0 0 0 0 0 0 0 0 0 0 0 0 -0 0 0 0 0 0 0 0 0 0 0 0 0 0 0 0 0 0 0 0 0 0 0 0 0 0 0 0 0 0 0 0 -0 -0 -0
0 0 0 0 0 0 0 0 0 0 0 0 0 0 0 0 0 0 0 0 0 0 0 0 0 0 0 0 0 0 0 0 0 0 0 0 0 0 0 0 0 0 0 0 0 0 0 0 0 0 0 0 0 0
0 0 0 0 0 0 0 0 0 0 0 0 0 0 0 0 -0 -0 0 0 0 0 0 0 0 0 0 0 0 0 0 0 0 0 0 0 0 0 0 0 0 0 0 0 0 0 0 0 0 0 0 0 0 0
0 0 0 0 0 0 0 0 0 0 0 0 0 0 0 0 0 0 0 0 0 0 0 0 0 0 0 0 0 0 0 0 0 0 0 0 0 0 0 0 0 0 0 0 0 0 0 0 0 0 0 0 0 0
-0 0 0 0 0 0 0 0 0 0 0 0 0 0 0 0 0 0 0 0 0 0 0 0 0 0 0 0 0 0 0 0 0 0 0 0 0 0 0 0 0 0 0 0 0 0 0 0 0 0 0 0 0 0
0 0 0 0 0 0 0 0 0 0 0 0 0 0 0 0 0 0 0 0 0 0 0 0 0 0 0 0 0 0 0 0 0 0 0 0 0 0 0 0 0 0 0 0 0 0 0 0 0 0 0 0 0 0
Wind_Speed_500mb
58 68 51 27 25 17 20 23 28 33 30 15 12 3 8 8 6 4 6 5 5 4 9 13 12 13 11 7 2 4 4 2 3 6 6 6 6 10 12 9 14 21 21 14 13 12 15 27 6 9 8 12 19 25
58 50 36 30 24 16 18 21 26 30 28 12 7 3 10 8 6 3 3 1 3 3 6 13 14 16 16 10 4 7 9 17 16 5 4 4 6 6 9 8 17 14 6 11 10 3 8 14 21 8 7 9 17 20
55 48 38 27 14 18 17 20 24 28 28 10 4 8 12 9 7 5 5 4 8 2 3 10 11 13 9 9 14 10 9 10 6 13 4 4 10 4 5 8 20 9 6 4 9 6 13 24 20 17 15 17 19 22
44 30 17 25 17 15 16 20 24 28 27 9 7 14 16 15 14 10 10 11 13 4 3 5 11 13 10 12 19 29 34 24 24 30 11 5 6 3 2 6 8 6 5 7 3 8 10 17 25 21 18 21 27 31
37 17 21 12 14 16 16 20 26 30 23 10 12 18 21 17 12 3 1 5 8 6 4 9 8 11 10 15 24 18 21 19 11 6 6 5 3 6 9 4 7 15 3 4 4 9 8 14 20 23 20 22 28 26
21 18 16 21 18 15 18 23 29 32 8 13 16 20 23 19 8 3 3 2 3 5 4 5 4 7 8 12 2 10 8 8 3 7 9 10 7 12 5 5 26 31 8 12 4 3 5 14 12 22 23 24 29 30
15 19 19 24 19 15 19 25 31 12 13 15 18 21 23 18 9 4 1 4 2 2 2 7 9 3 13 2 1 3 9 4 2 6 13 11 15 12 5 6 31 20 10 20 15 11 12 26 15 23 18 23 30 31
19 16 20 24 16 15 19 25 16 10 12 19 20 20 19 17 9 9 10 5 5 2 0 3 6 4 12 5 2 6 3 3 12 6 5 11 11 12 6 25 36 28 19 32 25 23 17 14 20 23 18 13 17 31
13 13 19 18 10 13 17 19 9 12 18 24 22 18 14 8 5 3 6 5 9 2 3 2 2 2 11 6 3 2 3 5 5 7 8 9 9 9 17 33 37 37 16 15 23 25 23 24 22 24 25 24 20 20
13 18 16 9 8 14 17 7 13 21 29 27 21 7 5 4 8 9 5 4 5 4 6 5 5 2 6 6 3 1 5 4 4 7 2 6 3 16 34 34 35 34 34 29 26 30 25 22 21 19 22 21 21 18
18 17 9 5 12 16 7 17 22 32 34 20 9 6 7 12 9 4 2 4 4 4 9 8 14 4 2 2 3 5 2 3 4 4 2 4 5 13 28 32 32 34 38 37 29 23 21 18 15 14 17 21 19 18
21 12 3 6 7 8 14 18 28 31 15 12 9 11 11 6 3 2 2 1 4 4 6 6 7 9 3 1 2 2 3 1 5 3 3 4 3 10 15 22 29 33 35 38 39 43 38 33 24 19 19 21 21 18
15 6 1 6 7 7 12 23 34 26 21 14 6 7 7 6 2 6 3 5 3 7 11 7 4 4 3 2 5 1 5 6 4 4 4 5 5 8 16 22 28 34 39 44 44 46 47 45 44 43 40 38 34 30
9 1 5 4 7 8 16 30 31 27 8 7 8 5 6 6 8 8 8 6 7 7 19 20 9 1 2 2 3 5 3 2 4 1 4 7 11 11 14 19 20 27 35 39 42 44 48 50 51 50 47 42 40 44
1 4 9 10 8 11 19 33 29 22 6 5 4 5 8 7 9 7 1 4 4 5 27 18 13 4 2 4 3 4 5 5 2 5 4 14 14 15 17 15 15 18 18 22 25 28 32 37 42 46 51 51 47 43
2 11 9 5 5 10 29 33 27 14 4 6 7 5 7 3 2 1 2 1 2 20 18 11 6 3 3 5 3 3 5 3 7 6 16 15 15 12 10 11 16 17 12 13 15 15 15 19 26 30 34 42 45 48
9 3 2 3 4 15 34 26 16 7 6 7 8 13 9 4 1 2 4 1 7 20 2 8 9 3 10 6 4 2 5 9 20 18 15 16 12 9 6 4 9 20 12 6 8 11 11 10 12 14 18 24 28 31
2 2 5 3 11 26 32 11 5 7 11 14 9 9 16 6 2 1 3 7 9 4 4 4 4 3 6 4 5 6 13 18 18 18 16 13 13 8 9 11 21 22 12 14 17 18 19 18 15 7 6 8 13 16
3 5 3 12 20 11 8 7 8 7 11 5 8 7 12 9 10 9 11 11 6 9 9 7 8 6 5 7 16 19 16 14 14 16 18 20 19 20 27 27 21 18 16 13 14 17 16 13 14 16 6 6 8 9
7 3 12 22 14 6 3 4 6 7 6 9 15 18 13 20 29 32 28 21 17 10 16 9 9 6 14 22 27 23 20 14 15 20 23 28 29 27 25 23 21 18 16 16 16 16 14 13 12 12 16 19 21 20
5 4 10 15 8 8 2 2 2 7 6 7 22 22 12 37 39 36 39 34 23 14 13 15 24 24 26 31 25 21 19 15 13 15 22 22 17 16 15 15 18 21 18 18 19 20 20 19 15 14 17 22 24 22
4 9 3 10 3 3 3 4 2 5 7 14 13 9 12 12 15 21 20 30 12 14 14 26 27 19 22 24 26 23 20 19 19 20 17 13 11 9 11 15 14 15 15 16 18 19 19 19 18 18 18 19 23 22
17 8 3 5 6 2 3 4 3 4 2 7 7 8 11 9 10 13 12 12 9 15 19 31 21 15 29 27 25 24 19 13 13 13 9 6 6 7 11 11 12 10 9 12 17 17 16 17 17 19 19 17 13 12
13 5 3 2 4 5 5 5 5 4 6 9 8 7 8 9 8 12 7 9 12 28 33 26 22 15 15 11 15 15 12 9 5 4 5 5 4 6 8 9 8 10 7 10 19 19 18 16 16 18 20 20 19 18
2 7 5 7 7 3 6 4 6 5 6 6 6 7 6 6 5 5 4 7 18 20 24 21 13 9 8 8 8 7 3 4 0 4 6 4 2 4 5 9 14 14 11 14 16 17 15 18 19 19 20 21 24 25
9 14 9 10 8 8 8 5 7 7 4 6 7 10 7 7 5 5 6 24 31 35 20 7 4 4 5 5 4 2 2 4 7 6 3 4 0 4 8 13 14 14 19 18 17 19 22 23 21 23 25 26 27 25
8 9 10 14 6 5 9 9 9 11 9 7 6 5 5 5 6 6 25 32 28 16 10 8 6 7 11 10 7 7 9 7 3 1 6 5 7 11 10 11 14 16 16 15 19 19 18 16 20 23 24 22 21 21
8 9 8 11 14 16 7 9 8 8 6 6 3 5 4 4 5 19 23 21 17 11 7 13 21 18 13 6 9 11 5 9 11 11 8 11 13 12 11 12 15 15 15 15 15 17 16 16 18 22 24 26 25 23
9 7 9 14 11 13 13 10 9 5 3 4 4 4 6 7 27 28 22 16 12 12 12 21 21 16 7 7 11 14 19 15 11 10 18 17 16 18 24 23 22 19 18 16 16 17 19 21 24 26 25 24 25 25
7 7 10 11 10 10 12 10 6 4 8 10 12 23 27 27 25 16 11 9 8 7 13 23 18 14 6 6 14 20 22 24 23 18 16 14 13 18 19 21 22 22 20 16 14 15 19 22 23 22 18 19 22 26
10 11 12 11 9 9 13 24 25 27 26 23 25 22 18 13 10 9 12 10 5 7 15 26 26 14 5 9 18 16 20 19 15 11 10 12 16 20 24 27 28 27 25 22 21 23 27 30 29 27 25 25 27 28
7 8 12 8 8 14 14 8 8 9 10 11 7 11 10 4 4 11 19 13 7 15 17 25 21 14 11 16 18 19 21 16 10 7 12 18 23 27 27 25 26 28 29 26 17 16 20 28 28 27 29 29 26 25
18 21 22 16 10 11 11 7 7 8 7 9 10 15 13 7 9 14 26 20 11 9 19 20 18 16 17 22 19 19 15 9 1 8 15 20 20 23 25 22 20 24 24 22 17 13 19 22 23 26 24 22 23 25
Wind_Direction_500mb
297 304 321 328 306 279 295 313 331 338 339 327 342 18 125 135 145 101 114 95 101 134 209 208 219 176 167 188 224 21 294 84 280 223 224 227 242 221 246 143 170 181 175 189 216 239 217 6 155 222 21 344 347 358
295 306 311 312 289 264 291 313 331 338 340 318 329 160 142 142 173 150 139 4 323 217 239 206 225 228 231 238 216 213 211 195 229 221 237 248 243 263 251 217 191 209 241 181 235 1 58 64 78 49 2 356 13 26
300 312 303 295 260 273 292 313 329 337 338 297 266 175 156 148 150 130 72 19 327 330 270 226 235 220 248 260 254 247 246 237 176 224 252 260 253 272 229 238 168 147 177 210 188 178 101 75 74 51 45 65 63 54
289 316 299 287 233 263 288 312 327 333 331 262 207 174 158 143 125 100 61 27 17 11 302 219 218 251 265 270 281 281 269 262 276 282 172 225 255 175 270 265 85 32 309 181 260 164 217 62 44 34 49 70 72 63
289 288 299 235 241 272 298 314 326 327 319 214 192 175 167 165 156 165 20 342 351 19 299 289 277 206 245 295 306 301 272 258 261 243 167 215 246 253 253 75 32 341 306 250 146 8 351 51 21 24 33 40 64 59
269 273 277 225 239 281 304 318 325 322 259 192 185 174 176 171 161 281 334 327 301 319 342 305 272 199 282 307 36 22 115 165 219 342 21 353 309 337 32 64 356 7 28 46 49 331 21 9 46 22 26 46 62 57
225 253 258 232 235 287 307 323 326 305 174 179 173 172 178 176 187 220 269 318 195 97 20 303 314 258 332 8 118 133 91 86 37 61 16 349 3 42 19 51 340 355 41 53 52 116 62 37 12 17 26 44 56 57
240 244 258 212 234 285 313 328 322 168 166 163 160 164 173 187 218 267 254 257 184 54 36 316 287 311 7 340 142 17 134 97 38 64 32 6 10 27 53 359 2 16 40 45 61 66 58 34 35 34 33 43 42 48
216 221 199 203 247 293 318 326 184 157 148 147 145 152 172 201 225 236 215 200 202 276 296 237 281 35 348 1 337 318 37 91 33 55 50 37 2 30 340 7 12 27 43 43 64 57 46 36 20 26 30 30 35 25
200 186 188 218 271 302 314 220 161 141 140 139 144 158 173 173 194 180 156 166 203 221 222 244 225 269 339 338 56 4 27 74 101 43 41 58 94 16 19 10 17 17 23 40 54 45 41 32 22 16 20 31 29 17
182 177 203 272 309 307 205 168 150 146 142 149 159 141 168 174 162 176 214 211 181 244 209 225 205 242 307 304 22 26 80 18 86 74 89 41 44 38 18 21 33 36 41 45 51 55 44 36 32 24 26 22 29 31
170 180 208 326 330 149 158 152 148 147 146 147 141 143 154 179 149 246 213 219 228 270 199 203 202 203 192 141 230 56 92 80 72 5 100 92 54 65 54 44 50 49 52 54 54 57 57 58 58 53 48 35 35 40
165 174 335 337 164 160 152 150 149 145 139 141 164 153 154 157 150 147 229 272 258 214 188 173 146 164 152 132 88 126 73 56 142 40 75 91 114 104 119 74 69 65 65 64 60 63 66 65 63 61 58 55 54 53
166 272 302 218 166 149 149 156 155 152 151 183 178 162 218 182 227 197 187 200 225 212 183 154 125 68 56 107 22 89 78 124 70 63 99 128 130 120 115 116 102 81 73 69 64 63 65 64 63 61 57 54 53 54
147 322 134 136 126 141 160 165 158 165 210 220 203 204 216 270 295 295 288 251 285 225 161 121 80 82 114 110 37 129 141 102 140 139 159 141 137 129 126 134 118 111 90 77 70 66 62 61 58 55 55 55 55 56
98 136 144 101 102 161 170 163 158 182 224 225 232 234 203 255 14 141 197 134 333 162 136 88 113 216 113 101 116 150 158 105 147 166 137 128 128 117 124 133 155 149 132 86 61 53 57 58 60 57 52 53 53 54
138 132 319 342 143 157 160 146 169 219 230 226 233 222 217 237 276 291 286 83 117 158 139 154 182 142 139 130 115 198 67 97 122 114 124 119 95 99 110 110 153 168 148 121 50 30 39 38 40 49 49 50 49 47
121 39 9 121 136 139 163 176 216 231 241 237 237 202 182 161 179 305 294 179 152 213 130 72 67 68 44 83 110 107 111 114 114 114 102 95 102 76 102 113 140 138 109 91 77 62 49 33 11 352 9 28 36 34
347 329 176 148 140 129 166 213 217 257 243 255 261 200 161 132 73 54 118 123 100 101 90 54 53 37 56 68 104 112 118 117 109 88 88 89 80 93 99 106 109 101 96 70 35 27 29 23 18 18 355 320 325 328
353 68 161 171 175 167 212 253 240 270 22 13 35 44 20 73 89 69 81 81 84 57 48 46 33 49 93 114 125 124 121 105 109 111 94 95 96 93 90 84 76 64 39 20 15 9 16 19 17 8 2 359 353 344
304 186 168 192 211 229 280 334 340 49 100 110 77 79 82 51 59 55 53 66 58 38 54 65 69 77 103 108 109 102 100 108 106 117 132 118 98 83 67 50 20 9 23 24 25 26 30 31 27 36 20 356 344 324
230 145 139 189 104 58 349 354 36 93 85 101 108 79 73 56 40 22 43 47 52 37 69 81 68 75 116 113 106 102 90 98 114 126 132 110 96 74 41 26 30 27 24 22 22 18 17 20 12 8 6 4 356 357
123 138 103 98 92 36 291 27 84 74 93 103 102 67 56 64 46 37 70 31 51 60 95 111 85 68 120 116 105 86 77 91 136 142 132 125 111 68 44 42 35 27 21 2 354 348 348 343 343 346 343 343 346 343
114 91 87 116 135 205 65 45 46 71 58 49 46 71 53 63 54 67 66 35 70 111 127 133 50 76 130 119 101 99 101 104 106 165 173 141 92 49 61 60 32 4 357 356 357 350 337 338 342 346 345 342 332 319
92 35 34 42 31 264 64 53 29 78 78 79 86 79 82 85 72 70 91 135 134 151 176 180 350 41 98 107 137 147 125 141 87 254 251 227 290 3 1 353 357 354 331 336 338 344 350 355 352 349 346 344 336 334
70 27 42 17 22 37 21 45 39 39 82 85 81 117 106 98 84 94 163 176 171 170 182 245 322 98 135 150 132 84 355 298 272 265 272 200 215 17 348 339 338 338 341 329 333 340 335 333 333 335 331 326 322 322
65 51 46 34 45 64 80 61 46 50 43 50 100 121 121 98 99 130 159 161 175 189 219 246 236 149 135 115 75 18 353 337 333 356 115 84 11 346 346 346 344 341 346 349 343 342 342 341 335 333 332 332 327 323
72 46 58 18 58 42 64 47 32 32 28 9 46 66 78 98 118 159 171 173 169 182 163 145 144 144 136 91 13 355 53 108 117 110 56 32 32 25 17 11 2 355 352 346 346 344 349 352 353 349 343 337 332 329
65 80 78 49 55 49 42 28 11 4 3 29 95 107 111 113 139 149 158 166 186 204 191 172 160 155 130 40 43 81 112 128 125 101 92 80 67 54 54 49 45 43 44 46 42 36 23 14 6 359 1 357 357 353
61 68 90 55 50 40 15 6 10 80 112 115 105 114 113 125 144 152 157 161 145 147 189 196 183 163 138 97 118 119 119 118 120 112 95 73 47 34 28 26 26 25 22 17 13 5 2 358 359 2 0 6 9 11
97 79 74 67 79 83 83 82 83 92 99 107 121 121 125 138 162 179 159 152 173 185 175 179 178 169 141 152 153 142 148 124 111 93 59 28 10 357 348 344 344 342 337 326 320 324 331 336 339 332 316 310 312 316
73 94 117 105 132 143 121 99 81 96 113 127 129 144 147 144 188 185 183 180 172 178 171 182 186 191 181 159 149 145 146 139 117 61 11 353 343 337 331 332 340 346 345 343 327 330 338 341 345 348 350 358 354 350
103 102 108 117 144 181 184 162 160 164 192 214 223 213 214 224 243 217 199 201 199 192 194 188 191 200 184 165 159 159 154 148 47 352 351 355 1 1 1 358 349 350 348 351 352 335 336 351 355 354 355 354 350 348
Wind_Speed_850mb
58 68 51 27 25 17 20 23 28 33 30 15 12 3 8 8 6 4 6 5 5 4 9 13 12 13 11 7 2 4 4 2 3 6 6 6 6 10 12 9 14 21 21 14 13 12 15 27 6 9 8 12 19 25
58 50 36 30 24 16 18 21 26 30 28 12 7 3 10 8 6 3 3 1 3 3 6 13 14 16 16 10 4 7 9 17 16 5 4 4 6 6 9 8 17 14 6 11 10 3 8 14 21 8 7 9 17 20
55 48 38 27 14 18 17 20 24 28 28 10 4 8 12 9 7 5 5 4 8 2 3 10 11 13 9 9 14 10 9 10 6 13 4 4 10 4 5 8 20 9 6 4 9 6 13 24 20 17 15 17 19 22
44 30 17 25 17 15 16 20 24 28 27 9 7 14 16 15 14 10 10 11 13 4 3 5 11 13 10 12 19 29 34 24 24 30 11 5 6 3 2 6 8 6 5 7 3 8 10 17 25 21 18 21 27 31
37 17 21 12 14 16 16 20 26 30 23 10 12 18 21 17 12 3 1 5 8 6 4 9 8 11 10 15 24 18 21 19 11 6 6 5 3 6 9 4 7 15 3 4 4 9 8 14 20 23 20 22 28 26
21 18 16 21 18 15 18 23 29 32 8 13 16 20 23 19 8 3 3 2 3 5 4 5 4 7 8 12 2 10 8 8 3 7 9 10 7 12 5 5 26 31 8 12 4 3 5 14 12 22 23 24 29 30
15 19 19 24 19 15 19 25 31 12 13 15 18 21 23 18 9 4 1 4 2 2 2 7 9 3 13 2 1 3 9 4 2 6 13 11 15 12 5 6 31 20 10 20 15 11 12 26 15 23 18 23 30 31
19 16 20 24 16 15 19 25 16 10 12 19 20 20 19 17 9 9 10 5 5 2 0 3 6 4 12 5 2 6 3 3 12 6 5 11 11 12 6 25 36 28 19 32 25 23 17 14 20 23 18 13 17 31
13 13 19 18 10 13 17 19 9 12 18 24 22 18 14 8 5 3 6 5 9 2 3 2 2 2 11 6 3 2 3 5 5 7 8 9 9 9 17 33 37 37 16 15 23 25 23 24 22 24 25 24 20 20
13 18 16 9 8 14 17 7 13 21 29 27 21 7 5 4 8 9 5 4 5 4 6 5 5 2 6 6 3 1 5 4 4 7 2 6 3 16 34 34 35 34 34 29 26 30 25 22 21 19 22 21 21 18
18 17 9 5 12 16 7 17 22 32 34 20 9 6 7 12 9 4 2 4 4 4 9 8 14 4 2 2 3 5 2 3 4 4 2 4 5 13 28 32 32 34 38 37 29 23 21 18 15 14 17 21 19 18
21 12 3 6 7 8 14 18 28 31 15 12 9 11 11 6 3 2 2 1 4 4 6 6 7 9 3 1 2 2 3 1 5 3 3 4 3 10 15 22 29 33 35 38 39 43 38 33 24 19 19 21 21 18
15 6 1 6 7 7 12 23 34 26 21 14 6 7 7 6 2 6 3 5 3 7 11 7 4 4 3 2 5 1 5 6 4 4 4 5 5 8 16 22 28 34 39 44 44 46 47 45 44 43 40 38 34 30
9 1 5 4 7 8 16 30 31 27 8 7 8 5 6 6 8 8 8 6 7 7 19 20 9 1 2 2 3 5 3 2 4 1 4 7 11 11 14 19 20 27 35 39 42 44 48 50 51 50 47 42 40 44
1 4 9 10 8 11 19 33 29 22 6 5 4 5 8 7 9 7 1 4 4 5 27 18 13 4 2 4 3 4 5 5 2 5 4 14 14 15 17 15 15 18 18 22 25 28 32 37 42 46 51 51 47 43
2 11 9 5 5 10 29 33 27 14 4 6 7 5 7 3 2 1 2 1 2 20 18 11 6 3 3 5 3 3 5 3 7 6 16 15 15 12 10 11 16 17 12 13 15 15 15 19 26 30 34 42 45 48
9 3 2 3 4 15 34 26 16 7 6 7 8 13 9 4 1 2 4 1 7 20 2 8 9 3 10 6 4 2 5 9 20 18 15 16 12 9 6 4 9 20 12 6 8 11 11 10 12 14 18 24 28 31
2 2 5 3 11 26 32 11 5 7 11 14 9 9 16 6 2 1 3 7 9 4 4 4 4 3 6 4 5 6 13 18 18 18 16 13 13 8 9 11 21 22 12 14 17 18 19 18 15 7 6 8 13 16
3 5 3 12 20 11 8 7 8 7 11 5 8 7 12 9 10 9 11 11 6 9 9 7 8 6 5 7 16 19 16 14 14 16 18 20 19 20 27 27 21 18 16 13 14 17 16 13 14 16 6 6 8 9
7 3 12 22 14 6 3 4 6 7 6 9 15 18 13 20 29 32 28 21 17 10 16 9 9 6 14 22 27 23 20 14 15 20 23 28 29 27 25 23 21 18 16 16 16 16 14 13 12 12 16 19 21 20
5 4 10 15 8 8 2 2 2 7 6 7 22 22 12 37 39 36 39 34 23 14 13 15 24 24 26 31 25 21 19 15 13 15 22 22 17 16 15 15 18 21 18 18 19 20 20 19 15 14 17 22 24 22
4 9 3 10 3 3 3 4 2 5 7 14 13 9 12 12 15 21 20 30 12 14 14 26 27 19 22 24 26 23 20 19 19 20 17 13 11 9 11 15 14 15 15 16 18 19 19 19 18 18 18 19 23 22
17 8 3 5 6 2 3 4 3 4 2 7 7 8 11 9 10 13 12 12 9 15 19 31 21 15 29 27 25 24 19 13 13 13 9 6 6 7 11 11 12 10 9 12 17 17 16 17 17 19 19 17 13 12
13 5 3 2 4 5 5 5 5 4 6 9 8 7 8 9 8 12 7 9 12 28 33 26 22 15 15 11 15 15 12 9 5 4 5 5 4 6 8 9 8 10 7 10 19 19 18 16 16 18 20 20 19 18
2 7 5 7 7 3 6 4 6 5 6 6 6 7 6 6 5 5 4 7 18 20 24 21 13 9 8 8 8 7 3 4 0 4 6 4 2 4 5 9 14 14 11 14 16 17 15 18 19 19 20 21 24 25
9 14 9 10 8 8 8 5 7 7 4 6 7 10 7 7 5 5 6 24 31 35 20 7 4 4 5 5 4 2 2 4 7 6 3 4 0 4 8 13 14 14 19 18 17 19 22 23 21 23 25 26 27 25
8 9 10 14 6 5 9 9 9 11 9 7 6 5 5 5 6 6 25 32 28 16 10 8 6 7 11 10 7 7 9 7 3 1 6 5 7 11 10 11 14 16 16 15 19 19 18 16 20 23 24 22 21 21
8 9 8 11 14 16 7 9 8 8 6 6 3 5 4 4 5 19 23 21 17 11 7 13 21 18 13 6 9 11 5 9 11 11 8 11 13 12 11 12 15 15 15 15 15 17 16 16 18 22 24 26 25 23
9 7 9 14 11 13 13 10 9 5 3 4 4 4 6 7 27 28 22 16 12 12 12 21 21 16 7 7 11 14 19 15 11 10 18 17 16 18 24 23 22 19 18 16 16 17 19 21 24 26 25 24 25 25
7 7 10 11 10 10 12 10 6 4 8 10 12 23 27 27 25 16 11 9 8 7 13 23 18 14 6 6 14 20 22 24 23 18 16 14 13 18 19 21 22 22 20 16 14 15 19 22 23 22 18 19 22 26
10 11 12 11 9 9 13 24 25 27 26 23 25 22 18 13 10 9 12 10 5 7 15 26 26 14 5 9 18 16 20 19 15 11 10 12 16 20 24 27 28 27 25 22 21 23 27 30 29 27 25 25 27 28
7 8 12 8 8 14 14 8 8 9 10 11 7 11 10 4 4 11 19 13 7 15 17 25 21 14 11 16 18 19 21 16 10 7 12 18 23 27 27 25 26 28 29 26 17 16 20 28 28 27 29 29 26 25
18 21 22 16 10 11 11 7 7 8 7 9 10 15 13 7 9 14 26 20 11 9 19 20 18 16 17 22 19 19 15 9 1 8 15 20 20 23 25 22 20 24 24 22 17 13 19 22 23 26 24 22 23 25
Wind_Direction_850mb
297 304 321 328 306 279 295 313 331 338 339 327 342 18 125 135 145 101 114 95 101 134 209 208 219 176 167 188 224 21 294 84 280 223 224 227 242 221 246 143 170 181 175 189 216 239 217 6 155 222 21 344 347 358
295 306 311 312 289 264 291 313 331 338 340 318 329 160 142 142 173 150 139 4 323 217 239 206 225 228 231 238 216 213 211 195 229 221 237 248 243 263 251 217 191 209 241 181 235 1 58 64 78 49 2 356 13 26
300 312 303 295 260 273 292 313 329 337 338 297 266 175 156 148 150 130 72 19 327 330 270 226 235 220 248 260 254 247 246 237 176 224 252 260 253 272 229 238 168 147 177 210 188 178 101 75 74 51 45 65 63 54
289 316 299 287 233 263 288 312 327 333 331 262 207 174 158 143 125 100 61 27 17 11 302 219 218 251 265 270 281 281 269 262 276 282 172 225 255 175 270 265 85 32 309 181 260 164 217 62 44 34 49 70 72 63
289 288 299 235 241 272 298 314 326 327 319 214 192 175 167 165 156 165 20 342 351 19 299 289 277 206 245 295 306 301 272 258 261 243 167 215 246 253 253 75 32 341 306 250 146 8 351 51 21 24 33 40 64 59
269 273 277 225 239 281 304 318 325 322 259 192 185 174 176 171 161 281 334 327 301 319 342 305 272 199 282 307 36 22 115 165 219 342 21 353 309 337 32 64 356 7 28 46 49 331 21 9 46 22 26 46 62 57
225 253 258 232 235 287 307 323 326 305 174 179 173 172 178 176 187 220 269 318 195 97 20 303 314 258 332 8 118 133 91 86 37 61 16 349 3 42 19 51 340 355 41 53 52 116 62 37 12 17 26 44 56 57
240 244 258 212 234 285 313 328 322 168 166 163 160 164 173 187 218 267 254 257 184 54 36 316 287 311 7 340 142 17 134 97 38 64 32 6 10 27 53 359 2 16 40 45 61 66 58 34 35 34 33 43 42 48
216 221 199 203 247 293 318 326 184 157 148 147 145 152 172 201 225 236 215 200 202 276 296 237 281 35 348 1 337 318 37 91 33 55 50 37 2 30 340 7 12 27 43 43 64 57 46 36 20 26 30 30 35 25
200 186 188 218 271 302 314 220 161 141 140 139 144 158 173 173 194 180 156 166 203 221 222 244 225 269 339 338 56 4 27 74 101 43 41 58 94 16 19 10 17 17 23 40 54 45 41 32 22 16 20 31 29 17
182 177 203 272 309 307 205 168 150 146 142 149 159 141 168 174 162 176 214 211 181 244 209 225 205 242 307 304 22 26 80 18 86 74 89 41 44 38 18 21 33 36 41 45 51 55 44 36 32 24 26 22 29 31
170 180 208 326 330 149 158 152 148 147 146 147 141 143 154 179 149 246 213 219 228 270 199 203 202 203 192 141 230 56 92 80 72 5 100 92 54 65 54 44 50 49 52 54 54 57 57 58 58 53 48 35 35 40
165 174 335 337 164 160 152 150 149 145 139 141 164 153 154 157 150 147 229 272 258 214 188 173 146 164 152 132 88 126 73 56 142 40 75 91 114 104 119 74 69 65 65 64 60 63 66 65 63 61 58 55 54 53
166 272 302 218 166 149 149 156 155 152 151 183 178 162 218 182 227 197 187 200 225 212 183 154 125 68 56 107 22 89 78 124 70 63 99 128 130 120 115 116 102 81 73 69 64 63 65 64 63 61 57 54 53 54
147 322 134 136 126 141 160 165 158 165 210 220 203 204 216 270 295 295 288 251 285 225 161 121 80 82 114 110 37 129 141 102 140 139 159 141 137 129 126 134 118 111 90 77 70 66 62 61 58 55 55 55 55 56
98 136 144 101 102 161 170 163 158 182 224 225 232 234 203 255 14 141 197 134 333 162 136 88 113 216 113 101 116 150 158 105 147 166 137 128 128 117 124 133 155 149 132 86 61 53 57 58 60 57 52 53 53 54
138 132 319 342 143 157 160 146 169 219 230 226 233 222 217 237 276 291 286 83 117 158 139 154 182 142 139 130 115 198 67 97 122 114 124 119 95 99 110 110 153 168 148 121 50 30 39 38 40 49 49 50 49 47
121 39 9 121 136 139 163 176 216 231 241 237 237 202 182 161 179 305 294 179 152 213 130 72 67 68 44 83 110 107 111 114 114 114 102 95 102 76 102 113 140 138 109 91 77 62 49 33 11 352 9 28 36 34
347 329 176 148 140 129 166 213 217 257 243 255 261 200 161 132 73 54 118 123 100 101 90 54 53 37 56 68 104 112 118 117 109 88 88 89 80 93 99 106 109 101 96 70 35 27 29 23 18 18 355 320 325 328
353 68 161 171 175 167 212 253 240 270 22 13 35 44 20 73 89 69 81 81 84 57 48 46 33 49 93 114 125 124 121 105 109 111 94 95 96 93 90 84 76 64 39 20 15 9 16 19 17 8 2 359 353 344
304 186 168 192 211 229 280 334 340 49 100 110 77 79 82 51 59 55 53 66 58 38 54 65 69 77 103 108 109 102 100 108 106 117 132 118 98 83 67 50 20 9 23 24 25 26 30 31 27 36 20 356 344 324
230 145 139 189 104 58 349 354 36 93 85 101 108 79 73 56 40 22 43 47 52 37 69 81 68 75 116 113 106 102 90 98 114 126 132 110 96 74 41 26 30 27 24 22 22 18 17 20 12 8 6 4 356 357
123 138 103 98 92 36 291 27 84 74 93 103 102 67 56 64 46 37 70 31 51 60 95 111 85 68 120 116 105 86 77 91 136 142 132 125 111 68 44 42 35 27 21 2 354 348 348 343 343 346 343 343 346 343
114 91 87 116 135 205 65 45 46 71 58 49 46 71 53 63 54 67 66 35 70 111 127 133 50 76 130 119 101 99 101 104 106 165 173 141 92 49 61 60 32 4 357 356 357 350 337 338 342 346 345 342 332 319
92 35 34 42 31 264 64 53 29 78 78 79 86 79 82 85 72 70 91 135 134 151 176 180 350 41 98 107 137 147 125 141 87 254 251 227 290 3 1 353 357 354 331 336 338 344 350 355 352 349 346 344 336 334
70 27 42 17 22 37 21 45 39 39 82 85 81 117 106 98 84 94 163 176 171 170 182 245 322 98 135 150 132 84 355 298 272 265 272 200 215 17 348 339 338 338 341 329 333 340 335 333 333 335 331 326 322 322
65 51 46 34 45 64 80 61 46 50 43 50 100 121 121 98 99 130 159 161 175 189 219 246 236 149 135 115 75 18 353 337 333 356 115 84 11 346 346 346 344 341 346 349 343 342 342 341 335 333 332 332 327 323
72 46 58 18 58 42 64 47 32 32 28 9 46 66 78 98 118 159 171 173 169 182 163 145 144 144 136 91 13 355 53 108 117 110 56 32 32 25 17 11 2 355 352 346 346 344 349 352 353 349 343 337 332 329
65 80 78 49 55 49 42 28 11 4 3 29 95 107 111 113 139 149 158 166 186 204 191 172 160 155 130 40 43 81 112 128 125 101 92 80 67 54 54 49 45 43 44 46 42 36 23 14 6 359 1 357 357 353
61 68 90 55 50 40 15 6 10 80 112 115 105 114 113 125 144 152 157 161 145 147 189 196 183 163 138 97 118 119 119 118 120 112 95 73 47 34 28 26 26 25 22 17 13 5 2 358 359 2 0 6 9 11
97 79 74 67 79 83 83 82 83 92 99 107 121 121 125 138 162 179 159 152 173 185 175 179 178 169 141 152 153 142 148 124 111 93 59 28 10 357 348 344 344 342 337 326 320 324 331 336 339 332 316 310 312 316
73 94 117 105 132 143 121 99 81 96 113 127 129 144 147 144 188 185 183 180 172 178 171 182 186 191 181 159 149 145 146 139 117 61 11 353 343 337 331 332 340 346 345 343 327 330 338 341 345 348 350 358 354 350
103 102 108 117 144 181 184 162 160 164 192 214 223 213 214 224 243 217 199 201 199 192 194 188 191 200 184 165 159 159 154 148 47 352 351 355 1 1 1 358 349 350 348 351 352 335 336 351 355 354 355 354 350 348